Simultaneous Nadir Overpasses (SNOs) Predictions

Prediction of SNOs over PacNW region [( 10.00, 139.50) to ( 22.70, 165.60)] between AQUA and NPP Satellites:

Table of predicted SNOs over PacNW region for the next 30.0 days since TLE Epoch: 3/7/2015
Index Date (AQUA) Time (AQUA) AQUA Lat,Lon Date (NPP) Time (NPP) NPP Lat,Lon Distance(km) Time Diff (sec)
1 03/11/2015 02:40:14 12.38, 162.23 03/11/2015 02:39:35 12.15, 160.99 137.08 39
2 03/13/2015 16:22:07 10.02, 140.03 03/13/2015 16:18:37 7.28, 139.20 317.51 210
3 03/19/2015 03:28:59 10.10, 150.40 03/19/2015 03:29:31 9.77, 148.84 174.20 32
4 03/27/2015 02:40:03 12.61, 162.27 03/27/2015 02:39:20 12.33, 160.95 147.24 43
5 03/29/2015 16:21:49 10.00, 140.14 03/29/2015 16:18:19 7.32, 139.22 315.01 210




NCC Satellite Simultaneous Nadir Overpasses (SNOs) Prediction Service
